TimeCDT,TemperatureF,Dew PointF,Humidity,Sea Level PressureIn,VisibilityMPH,Wind Direction,Wind SpeedMPH,Gust SpeedMPH,PrecipitationIn,Events,Conditions,WindDirDegrees,DateUTC
12:52 AM,71.6,68.0,88,29.89,8.0,WNW,5.8,-,N/A,,Clear,290,2013-03-19 05:52:00
1:52 AM,71.1,68.0,90,29.91,9.0,North,9.2,-,N/A,,Clear,350,2013-03-19 06:52:00
2:52 AM,70.0,66.0,87,29.91,10.0,NNE,13.8,-,N/A,,Clear,20,2013-03-19 07:52:00
3:52 AM,69.1,64.0,84,29.92,10.0,NNE,16.1,-,N/A,,Clear,30,2013-03-19 08:52:00
4:52 AM,68.0,63.0,84,29.91,10.0,NE,12.7,-,N/A,,Clear,40,2013-03-19 09:52:00
5:52 AM,68.0,63.0,84,29.93,10.0,ENE,17.3,-,N/A,,Clear,60,2013-03-19 10:52:00
6:52 AM,66.0,57.0,73,29.95,10.0,ENE,20.7,27.6,N/A,,Clear,60,2013-03-19 11:52:00
7:52 AM,64.9,50.0,58,29.96,10.0,ENE,16.1,25.3,N/A,,Clear,70,2013-03-19 12:52:00
8:52 AM,66.0,51.1,59,29.99,10.0,East,20.7,27.6,N/A,,Clear,80,2013-03-19 13:52:00
9:52 AM,68.0,55.0,63,30.00,10.0,East,16.1,-,N/A,,Clear,90,2013-03-19 14:52:00
10:52 AM,69.1,57.0,65,29.99,10.0,ESE,17.3,24.2,N/A,,Clear,110,2013-03-19 15:52:00
11:52 AM,71.1,60.1,68,29.99,10.0,ESE,18.4,-,N/A,,Clear,120,2013-03-19 16:52:00
12:38 PM,69.8,60.8,73,29.98,8.0,SE,17.3,-,N/A,,Mostly Cloudy,130,2013-03-19 17:38:00
12:52 PM,71.1,62.1,73,29.98,8.0,SE,17.3,-,N/A,,Overcast,130,2013-03-19 17:52:00
1:52 PM,69.1,63.0,81,29.97,7.0,East,6.9,-,N/A,,Overcast,100,2013-03-19 18:52:00
2:52 PM,71.1,64.0,78,29.94,6.0,ESE,6.9,-,N/A,,Haze,110,2013-03-19 19:52:00
3:52 PM,72.0,64.0,76,29.93,6.0,East,8.1,-,N/A,,Haze,100,2013-03-19 20:52:00
4:52 PM,70.0,63.0,78,29.91,6.0,ENE,9.2,-,N/A,,Haze,60,2013-03-19 21:52:00
5:52 PM,68.0,63.0,84,29.92,4.0,ENE,11.5,-,N/A,,Haze,60,2013-03-19 22:52:00
6:14 PM,68.0,62.6,83,29.92,8.0,ENE,10.4,-,N/A,,Overcast,60,2013-03-19 23:14:00
6:52 PM,66.9,63.0,87,29.92,5.0,ENE,11.5,-,N/A,,Overcast,70,2013-03-19 23:52:00
7:52 PM,66.9,64.0,90,29.93,9.0,ENE,10.4,-,N/A,,Overcast,60,2013-03-20 00:52:00
8:10 PM,66.2,64.4,94,29.92,10.0,ENE,12.7,-,N/A,,Overcast,70,2013-03-20 01:10:00
8:17 PM,66.2,64.4,94,29.92,10.0,ENE,11.5,-,N/A,,Overcast,60,2013-03-20 01:17:00
8:52 PM,66.9,63.0,87,29.93,10.0,ENE,15.0,-,N/A,,Overcast,60,2013-03-20 01:52:00
9:52 PM,66.9,64.0,90,29.96,10.0,NE,13.8,-,N/A,,Overcast,50,2013-03-20 02:52:00
10:52 PM,69.1,64.0,84,29.95,10.0,ENE,11.5,-,N/A,,Overcast,60,2013-03-20 03:52:00
11:00 PM,69.8,62.6,78,29.95,10.0,NE,9.2,-,N/A,,Overcast,40,2013-03-20 04:00:00
11:52 PM,70.0,63.0,78,29.95,10.0,NE,9.2,-,N/A,,Overcast,50,2013-03-20 04:52:00
11:59 PM,69.8,62.6,78,29.94,10.0,NE,9.2,-,N/A,,Overcast,50,2013-03-20 04:59:00